Location: Lachepaillet
(43.4918°N, 1.4874°W)
Time: 02:00:48
(UTC+00:00)

Cosmos 1975 - Pass Details

Date: 15 May 2026
Orbit: 471 x 485 km, 82.5° (Epoch: 8 June)

Event Time Altitude Azimuth Distance (km) Brightness Sun altitude
Rises 23:29:07 0° 348° (NNW) 2,570 7.6 -27.0°
Reaches altitude 10° 23:31:15 10° 345° (NNW) 1,683 6.3 -27.0°
Enters shadow 23:33:25 33° 333° (NNW) 848 4.2 -27.1°
